Погода в Роторуа

Новая Зеландия     38°08′19″S   176°14′09″E
темп.,
°C
ветер,
м/с
пор.,
м/с
влажн.,
%
обл.,
%
осадки,
мм/ч
давл.,
гПа
погр.,
м
18 мая, вт
вт1800:00+11з3128620 0.1 10061195
03:00+10зсз3129164 0.1 10051068
06:00+10сз4158999 0.1 10041401
09:00+9зсз61697100 2.7 10031397
12:00+11з615774 3.4 10051492
15:00+11з6177062 0.1 10051560
18:00+9зюз6167458 0.1 10071516
21:00+9з4167998 0.1 10091658
19 мая, ср
ср1900:00+9зюз51772100 0.1 10101734
03:00+9зюз4167241 0.1 10121483
06:00+10з41477100 0.1 10131666
09:00+11з41474100 0.1 10151571
12:00+11з41482100 0.3 10151494
15:00+13зюз41268100 0.2 10141418
18:00+12зюз3127850 0.3 10161294
21:00+11зюз2107885 0.1 10191074
20 мая, чт
чт2000:00+9з148813 0.1 1021141
03:00+7з119913 0.0 102212
06:00+7юз009920 0.0 102311
09:00+10ююз11881 0.0 1024136
12:00+16юз115822 0.0 10231001
15:00+16ссз1257100 0.0 1022495
18:00+11ссв139199 0.1 1024106
21:00+11ссв139089 0.1 1024125
21 мая, пт
пт2100:00+11с128895 0.1 102479
03:00+9ссз119826 0.1 102319
06:00+10ссз1197100 0.1 102339
09:00+11зсз1585100 0.1 1023192
12:00+14з25665 0.2 10211137
15:00+13з2562100 0.0 10191313
18:00+8з1191100 0.1 102017
21:00+6зсз1192100 0.0 102113
22 мая, сб
сб2200:00+6ююз1197100 0.0 102033
03:00+5ююз1199100 0.0 102020
06:00+6ююз1299100 0.0 102050
09:00+8ююв21086100 0.0 1020401
12:00+12юв4855100 0.0 10191057
15:00+11юв41263100 0.0 10191170
18:00+9юв41369100 0.0 10181537
21:00+9юв51469100 0.1 10181527